sat.trackr.live / text

‹ back to catalog

GPM-CORE

NORAD 39574 · 2014-009C

PAYLOAD ACTIVE UNKNOWN

§ Identity

Operator
Country
JPN
Launch date
2014-02-27
Launch site
TANSC
Launch vehicle
Mass (kg)
RCS (m²)
8.10

Purposes: earth_obs

External: N2YO · Heavens-Above · Gunter

§ Orbital elements

Epoch: 2026-09-20T04:09:52.324992Z

Period
93.20 min
Inclination
64.9723°
Eccentricity
0.0011015
Mean motion
15.45026362 rev/d
Perigee alt
423.8 km
Apogee alt
438.8 km
Semi-major
6,809.4 km
B*
1.5769e-4
RAAN
349.8374°
Arg perigee
263.1262°
Mean anomaly
96.8625°
Rev number
71,248

§ Raw data

GPM-CORE1 39574U 14009C   26263.17352228  .00007246  00000+0  15769-3 0  99902 39574  64.9723 349.8374 0011015 263.1262  96.8625 15.45026362712481

JSON: /api/v1/satellites/39574 · /tle

For live sub-satellite position, see the globe view (requires WebGL).

§ Visibility from observer

Set your observer location to see the next 7 days of passes ≥ 10°. The values pass through the URL so the page stays shareable.

No JS? Fill the form by hand. The geolocation button needs JavaScript.

§ Radio — SatNOGS DB

ModeDescriptionDownlinkUplink
FM S-band telemetry 2.288 GHz

1 transmitter · refreshed weekly from db.satnogs.org